This demonstration page uses our WeatherBlox Daily Observations layout. Learn more.

Left ArrowRight Arrow

Hourly Observations for February 25, 2017

Temp ( °F °C ) Dew Point ( °F °C ) Humidity (%) Winds ( mph kmh ) Pressure ( in mb ) Visibility ( mi km ) Precip ( " mm )
12:51 am 00:51 Clear 35 1.7 14 -10 42 42 N 3 6 30.09 1019 10 16 N/A
1:51 am 01:51 Clear 34 1.1 14 -10 44 44 NNE 3 6 30.09 1019 10 16 N/A
2:51 am 02:51 Clear 32 undefined 14 -10 47 47 ESE 5 7 30.08 1019 10 16 N/A
3:51 am 03:51 Clear 29 -1.7 13 -10.6 51 51 ENE 3 6 30.08 1019 10 16 N/A
4:51 am 04:51 Clear 33 0.6 14 -10 45 45 N N/A 30.08 1019 10 16 N/A
5:51 am 05:51 Clear 28 -2.2 14 -10 56 56 SSE 5 7 30.11 1020 10 16 N/A
6:51 am 06:51 Sunny 26 -3.3 13 -10.6 57 57 SSE 3 6 30.12 1020 10 16 N/A
7:51 am 07:51 Sunny 34 1.1 16 -8.9 48 48 N N/A 30.11 1020 10 16 N/A
8:51 am 08:51 Sunny 40 4.4 17 -8.3 40 40 N N/A 30.11 1020 10 16 N/A
9:51 am 09:51 Sunny 47 8.3 16 -8.9 29 29 VRB 3 6 30.08 1019 10 16 N/A
10:51 am 10:51 Sunny 51 10.6 15 -9.4 24 24 S 5 7 30.06 1018 10 16 N/A
11:51 am 11:51 Sunny 54 12.2 14 -10 20 20 SSW 3 6 30.03 1017 10 16 N/A
12:51 pm 12:51 Sunny 58 14.4 13 -10.6 17 17 VRB 6 9 30.00 1016 10 16 N/A
1:51 pm 13:51 Sunny 60 15.6 12 -11.1 15 15 W 8 13 29.96 1015 10 16 N/A
2:51 pm 14:51 Sunny 61 16.1 14 -10 16 16 undefined N/A 29.92 1013 10 16 N/A
3:51 pm 15:51 Sunny 62 16.7 11 -11.7 13 13 WNW 14 22 29.91 1013 10 16 N/A
4:51 pm 16:51 Sunny 62 16.7 11 -11.7 13 13 WNW 10 17 29.90 1013 10 16 N/A
5:51 pm 17:51 Sunny 58 14.4 11 -11.7 15 15 NW 12 19 29.91 1013 10 16 N/A
6:51 pm 18:51 Clear 54 12.2 10 -12.2 17 17 NNW 12 19 29.92 1013 10 16 N/A
7:51 pm 19:51 Clear 51 10.6 11 -11.7 20 20 NNW 13 20 29.91 1013 10 16 N/A
8:51 pm 20:51 Clear 51 10.6 11 -11.7 20 20 NW 10 17 29.91 1013 10 16 N/A
9:51 pm 21:51 Clear 48 8.9 11 -11.7 22 22 WNW 8 13 29.91 1013 10 16 N/A
10:51 pm 22:51 Clear 44 6.7 13 -10.6 28 28 WNW 9 15 29.90 1013 10 16 N/A
11:51 pm 23:51 Clear 41 5 13 -10.6 32 32 ESE 3 6 29.90 1012 10 16 N/A

Powered by AerisWeather